Location: Bratislava
(48.1500°N, 17.1170°E)
Time: 05:45:00
(UTC+02:00)

Envisat - Visible Passes

Search period start: 26 September 2017 00:00
Search period end: 06 October 2017 00:00
Orbit: 764 x 766 km, 98.2° (Epoch: 25 September)

Date Brightness Start Highest point End Pass type
(mag) Time Alt. Az. Time Alt. Az. Time Alt. Az.
26 Sep 4.4 19:05:12 10° ESE 19:08:43 19° ENE 19:12:15 10° NNE visible
26 Sep 3.2 20:43:23 18° S 20:47:13 71° WSW 20:52:19 10° NNW visible
27 Sep 3.1 20:06:25 15° SE 20:10:32 57° ENE 20:15:32 10° N visible
27 Sep 5.2 21:46:37 12° SW 21:49:56 21° W 21:53:46 10° NW visible
28 Sep 3.9 19:29:42 10° ESE 19:34:03 30° ENE 19:38:25 10° N visible
28 Sep 4.0 21:09:39 19° SSW 21:12:55 43° W 21:17:46 10° NNW visible
29 Sep 2.9 20:32:40 21° SSE 20:36:06 87° WSW 20:41:14 10° NNW visible
29 Sep 5.7 22:13:44 10° WSW 22:15:53 13° W 22:18:03 10° WNW visible
30 Sep 3.3 19:55:42 16° SE 19:59:29 47° ENE 20:04:21 10° N visible
30 Sep 4.9 21:35:55 17° SW 21:38:43 26° W 21:42:58 10° NW visible
01 Oct 4.1 19:19:00 10° ESE 19:23:03 25° ENE 19:27:07 10° N visible
01 Oct 3.6 20:58:56 25° SSW 21:01:46 53° W 21:06:45 10° NNW visible
02 Oct 2.9 20:21:58 25° SSE 20:25:00 77° ENE 20:30:07 10° N visible
02 Oct 5.5 22:02:11 12° WSW 22:04:38 16° W 22:07:40 10° NW visible
03 Oct 3.5 19:45:00 17° SE 19:48:27 38° ENE 19:53:08 10° N visible
03 Oct 4.5 21:25:13 22° SW 21:27:31 32° W 21:32:04 10° NNW visible
04 Oct 4.3 19:08:23 10° ESE 19:12:04 21° ENE 19:15:46 10° NNE visible
04 Oct 3.3 20:48:14 31° S 20:50:37 66° WSW 20:55:43 10° NNW visible
05 Oct 3.0 20:11:16 27° SE 20:13:56 62° ENE 20:18:58 10° N visible
05 Oct 5.2 21:51:29 16° WSW 21:53:23 20° W 21:57:02 10° NW visible
